Weather Roundup
Issued by NWS Chicago, IL

Home | Current Version | Previous Version | Graphics & Text | Print | Product List | Glossary On
Versions: 1 2 3 4 5 6 7 8 9 10 11 12 13 14 15 16 17 18 19 20 21 22 23 24 25 26 27 28 29 30 31 32 33 34 35 36 37 38 39 40 41 42 43 44 45 46 47 48 49 50
000
NZUS59 KLOT 230910
HRRLOT

CHICAGO AREA WEATHER ROUNDUP
NATIONAL WEATHER SERVICE CHICAGO/ROMEOVILLE IL
400 AM CDT SAT AUG 23 2014

NOTE: "FAIR" INDICATES FEW OR NO CLOUDS BELOW 12,000 FEET WITH NO
SIGNIFICANT WEATHER AND/OR OBSTRUCTIONS TO VISIBILITY.

* THESE STATIONS ARE NOT UNDER NWS QUALITY CONTROL. THEY ALSO MAY NOT
  REPORT WEATHER SUCH AS PRECIPITATION OR FOG.

ILZ005-006-012>014-019>023-231000-
NORTHEAST ILLINOIS

CITY           SKY/WX    TMP DP  RH WIND       PRES   REMARKS
OHARE          CLOUDY    74  70  87 N5        29.98S FOG
MIDWAY         MOCLDY    76  74  93 CALM      29.97S FOG
AURORA         MOCLDY    72  70  93 CALM      29.97F FOG
LANSING*       FOG       70  69  99 CALM      29.98S VSB 1/4
JOLIET*        PTCLDY    73  71  93 CALM      29.97F FOG
WAUKEGAN       FOG       71  69  93 NE5       29.98F VSB 1/4
DUPAGE AIRPORT MOCLDY    73  71  93 NE3       29.97S FOG
WHEELING       CLOUDY    74  72  93 NE5       29.99F FOG
KANKAKEE*      FOG       69  69  99 CALM      29.97F VSB 3/4
MORRIS*        PTCLDY    73  73 100 CALM      29.96F FOG
LEWIS AIRPORT* FOG       71  71 100 CALM      29.98S VSB 3/4
NORTHERLY IS     N/A     73  71  93 MISG        N/A
$$

WIZ051-052-058>065-066-070>072-231000-
SOUTHEAST WISCONSIN

CITY           SKY/WX    TMP DP  RH WIND       PRES   REMARKS
MILWAUKEE      FOG       69  68  96 CALM      29.99F VSB 1/8
KENOSHA*       FOG       70  70 100 E3        29.99F VSB 1/4
RACINE*        FOG       69  68  96 CALM      30.00F VSB 1/4
BURLINGTON     FOG       69  69  99 CALM      29.99S VSB 1/4
WAUKESHA       FOG       68  68 100 SE3       30.00F VSB 1/4
WEST BEND      FOG       66  64  94 CALM      30.01S VSB 1/4
$$

INZ001>003-010>013-019-020-231000-
NORTHWEST INDIANA

CITY           SKY/WX    TMP DP  RH WIND       PRES   REMARKS
GARY*          PTCLDY    71  70  96 CALM      29.98S FOG
MICHIGAN CITY* NOT AVBL
RENSSELAER*    NOT AVBL
VALPARAISO     PTCLDY    70  68  93 CALM      29.99R
$$

LMZ740>746-231000-
SOUTHERN LAKE MICHIGAN

STATION/POSITION TIME  SKY/WX   TEMP WIND        PRES    VSBY
                                AIR  DIR/SP/G
                 (UTC)          (F)  (DEG/KT/KT) (MB)    (MI)
HARRISON CRIB    0900            72   20/  4/  5   N/A
BURNHAM HARBOR   0900            72   10/  2/  4   N/A
CALUMET HARBOR   0900            74   CALM  /  1 1013.8R
BURNS HARBOR     NOT AVBL
MICHIGAN CITY    0900            74  170/  3/  4   N/A
$$

ABBREVIATIONS USED IN REMARKS
   TC - TEMPERATURE IN CELSIUS
  WCI - WIND CHILL INDEX
   HX - HEAT INDEX
  VSB - VISIBILITY
$$


USA.gov is the U.S. government's official web portal to all federal, state and local government web resources and services.